Flag for Monaco Weather past 2 weeks in Monaco, Monaco

Now
66 °F

Partly sunny.


Feels Like: 66 °F
Forecast: 54 / 68 °F
Wind: 2 mph from North

Location: Nice Airport

Current Time: May 23, 2015 at 11:56:09 AM

Latest Report: May 23, 2015 at 11:30 AM


Visibility: N/A

Pressure: 29.86 "Hg

Humidity: 68%

Dew point: 55 °F

Location of MonacoLocation

Historic Weather in Monaco — Graph

°F

Monaco temperature yesterday

Maximum temperature yesterday: 68 °F (at 10:00 AM)
Minimum temperature yesterday: 54 °F (at 5:30 AM)
Average temperature yesterday: 62 °F

Past Weeks' High & Low Weather Summary

 TemperatureHumidityPressure
High77 °F (May 17, 11:00 AM)94% (May 15, 4:30 AM)30.27 "Hg (May 15, 4:30 AM)
Low52 °F (May 21, 5:30 AM)23% (May 15, 5:30 PM)29.47 "Hg (May 15, 4:00 PM)
Average66 °F66%29.96 "Hg
* Reported May 8 10:04 AM — May 23 10:30 AM, Monaco, Weather by CustomWeather, © 2015

Note: Actual official high and low records may vary slightly from our data, if they occured in-between our weather recording intervals... More about our weather records

Advertising

Monaco weather history for previous 24 hours

 ConditionsComfort  
Time TempWeatherWind HumidityBarometerVisibility
10:30 AM
Sat, May 23
64 °FPartly sunny.7 mph73%29.86 "HgN/A
10:00 AM66 °FPassing clouds.6 mph64%29.86 "HgN/A
9:30 AM66 °FSunny.3 mph52%29.86 "Hg10 mi
9:00 AM66 °FSunny.3 mph49%29.83 "Hg10 mi
8:30 AM64 °FSunny.3 mph52%29.83 "Hg10 mi
8:00 AM63 °FSunny.6 mph52%29.83 "Hg10 mi
7:30 AM63 °FSunny.6 mph52%29.83 "Hg10 mi
7:00 AM61 °FSunny.6 mph55%29.83 "Hg10 mi
6:30 AM61 °FClear.6 mph55%29.83 "Hg10 mi
6:00 AM61 °FClear.3 mph59%29.83 "Hg10 mi
5:30 AM63 °FClear.6 mph56%29.83 "Hg10 mi
5:00 AM63 °FClear.3 mph52%29.83 "Hg10 mi
4:30 AM61 °FClear.2 mph59%29.83 "Hg10 mi
4:00 AM61 °FClear.2 mph59%29.83 "Hg10 mi
3:30 AM63 °FPassing clouds.5 mph56%29.83 "HgN/A
3:00 AM61 °FClear.3 mph59%29.86 "Hg10 mi
2:30 AM63 °FClear.3 mph59%29.86 "Hg10 mi
2:00 AM61 °FClear.6 mph63%29.89 "Hg10 mi
1:30 AM61 °FPassing clouds.5 mph63%29.89 "HgN/A
1:00 AM61 °FClear.3 mph63%29.89 "Hg10 mi
12:30 AM61 °FClear.2 mph63%29.89 "Hg10 mi
12:00 AM63 °FClear.3 mph73%29.89 "Hg10 mi
11:30 PM
Fri, May 22
63 °FClear.6 mph73%29.92 "Hg10 mi
11:00 PM63 °FClear.6 mph77%29.92 "Hg10 mi
10:30 PM64 °FPartly cloudy.7 mph68%29.92 "HgN/A
10:00 PM64 °FPassing clouds.8 mph68%29.92 "HgN/A
9:30 PM64 °FPartly sunny.6 mph64%29.89 "HgN/A
9:00 PM64 °FPartly sunny.5 mph60%29.89 "HgN/A
8:40 PM64 °FPartly sunny.5 mph64%29.89 "HgN/A
8:00 PM66 °FPartly sunny.3 mph56%29.92 "HgN/A
7:30 PM66 °FPartly sunny.6 mph56%29.92 "HgN/A
7:00 PM66 °FPassing clouds.8 mph60%29.92 "HgN/A
6:30 PM66 °FScattered clouds.10 mph56%29.92 "HgN/A
6:00 PM66 °FScattered clouds.13 mph56%29.92 "HgN/A
5:30 PM66 °FScattered clouds.16 mph60%29.92 "HgN/A
5:00 PM66 °FPassing clouds.16 mph56%29.92 "HgN/A
4:30 PM66 °FPassing clouds.17 mph56%29.92 "HgN/A
4:00 PM66 °FPassing clouds.20 mph56%29.95 "HgN/A
3:30 PM66 °FPassing clouds.21 mph56%29.95 "HgN/A
3:00 PM68 °FPassing clouds.21 mph56%29.95 "HgN/A
2:30 PM68 °FPassing clouds.18 mph53%29.95 "HgN/A
2:00 PM68 °FPassing clouds.17 mph49%29.95 "HgN/A
1:30 PM68 °FPassing clouds.17 mph53%29.95 "HgN/A
1:00 PM68 °FPassing clouds.18 mph53%29.95 "HgN/A
12:30 PM66 °FPassing clouds.15 mph52%29.98 "HgN/A
12:00 PM66 °FPassing clouds.13 mph52%29.98 "HgN/A
11:30 AM66 °FPassing clouds.12 mph49%29.98 "HgN/A
11:00 AM66 °FPassing clouds.7 mph49%29.98 "HgN/A
Weather by CustomWeather, © 2015

See weather overviewHow to use our weather pages